• Join FlightAware (Why Join?)
  • Login
  • US Flag 
07:51PM EST


 

Airport Tracker/Info


-or-


 

Live Flight TrackerFlight Track Log ✈ AWI4084 ✈ 30-Jun-2013 ✈ KDCA - KSYR

Flight Track Log - Related Links

Times and Time Zones

All times are in EDT time to prevent confusion due to time zone crossing. See the AWI4084 flight status page for this flight to view local times or setup timezone preferences in your user account.

Time Position Orientation Groundspeed Altitude Reporting Facility
EDT Latitude Longitude Course Direction KTS MPH feet Rate Location/Type
04:56PM 38.7667 -77.0333 346° North 209 241 3,500  Level Potomac TRACON
04:57PM 38.7500 -77.1000 252° West 239 275 5,400 1,850 Climbing Potomac TRACON
04:58PM 39.0754 -77.1550 336° Northwest  Level FlightAware Approximate
04:58PM 38.7167 -77.1833 243° Southwest 281 323 7,200  Level Potomac TRACON
04:59PM 39.1525 -77.1991 336° Northwest  Level FlightAware Approximate
04:59PM 38.7167 -77.2833 270° West 300 345 9,600  Level Potomac TRACON
05:00PM 39.2325 -77.2330 346° North  Level FlightAware Approximate
05:01PM 39.3200 -77.2815 337° Northwest  Level FlightAware Approximate
05:01PM 38.8503 -77.3722 333° Northwest 350 403 11,500  Level Washington Center
05:02PM 39.4089 -77.3252 346° North  Level FlightAware Approximate
05:03PM 39.0386 -77.4489 342° North 355 409 14,400  Level Washington Center
05:04PM 39.1450 -77.4489 360° North 360 414 15,600 1,050 Climbing Washington Center
05:05PM 39.2533 -77.4492 360° North 371 427 16,500 992 Climbing Washington Center
05:06PM 39.3639 -77.4519 359° North 383 441 17,600 931 Climbing Washington Center
05:08PM 39.5675 -77.4558 359° North 396 456 19,200 828 Climbing New York Center
05:09PM 39.6822 -77.4558 360° North 407 468 20,000 763 Climbing New York Center
05:10PM 39.7964 -77.4289 10° North 407 468 20,700 661 Climbing New York Center
05:11PM 39.9081 -77.3692 22° Northeast 412 474 21,300 645 Climbing New York Center
05:12PM 40.0239 -77.3094 22° Northeast 432 497 22,000 597 Climbing New York Center
05:14PM 40.2669 -77.1772 23° Northeast 447 514 23,100 495 Climbing New York Center
05:15PM 40.3828 -77.1144 22° Northeast 447 514 23,500 458 Climbing New York Center
05:16PM 40.5050 -77.0519 21° North 447 514 24,000 610 Climbing New York Center
05:17PM 40.6231 -76.9861 23° Northeast 447 514 24,700 496 Climbing New York Center
05:18PM 40.7453 -76.9233 21° North 452 520 25,000 99 Climbing New York Center
05:19PM 40.8675 -76.8547 23° Northeast 457 526 24,900 -793 Descending New York Center
05:20PM 40.9983 -76.7839 22° Northeast 477 549 23,400 -966 Descending New York Center
05:21PM 41.1225 -76.7178 22° Northeast 485 558 23,000 -203 Descending New York Center
05:22PM 41.2447 -76.6483 23° Northeast 480 552 23,000  Level New York Center
05:23PM 41.3625 -76.5842 22° Northeast 468 539 23,000  Level New York Center
05:24PM 41.4692 -76.5297 21° North 462 532 23,000 -605 Level New York Center
05:25PM 41.5892 -76.4594 24° Northeast 462 532 21,800 -1,000 Descending New York Center
05:26PM 41.7156 -76.3869 23° Northeast 476 548 21,000 -397 Descending New York Center
05:27PM 41.8406 -76.3417 15° North 476 548 21,000  Level New York Center
05:28PM 41.9683 -76.3247 North 460 529 21,000 -298 Level New York Center
05:29PM 42.0983 -76.3047 North 460 529 20,400 -1,587 Descending New York Center
05:30PM 42.2275 -76.3044 360° North 465 535 17,800 -2,579 Descending New York Center
05:31PM 42.3522 -76.3067 359° North 458 527 15,200 -2,441 Descending New York Center
05:32PM 42.4653 -76.2964 North 436 502 13,000 -2,121 Descending New York Center
05:33PM 42.5778 -76.2639 12° North 364 419 11,100 -1,333 Descending Boston Center
05:33PM 42.6219 -76.2497 13° North 358 412 11,000 -198 Descending Boston Center
05:34PM 42.7189 -76.2217 12° North 355 409 10,800 -893 Descending Boston Center
05:35PM 42.8053 -76.1986 11° North 305 351 9,200 -1,869 Descending Boston Center
05:36PM 42.8803 -76.1325 33° Northeast 299 344 7,000 -1,934 Descending Boston Center
05:37PM 42.9431 -76.0653 38° Northeast 293 337 5,300 -1,488 Descending Boston Center
05:38PM 43.0014 -75.9978 40° Northeast 267 307 4,000 -1,279 Descending Boston Center